| time (UTC) | temp F | wind direction | speed MPH | gust MPH | rain 1hr in | rain 24hr in | rain mn in | humidity % | barometer mb |
| 20260504050512 | 36 | 304 | 0.0 | 1.0 | 0.00 | 0.00 | 0.00 | 68 | 1004.8 |
| 20260504050111 | 35 | 304 | 0.0 | 0.0 | 0.00 | 0.00 | 0.00 | 68 | 1005.2 |
| 20260504050017 | 36 | 305 | 0.0 | 2.0 | 0.00 | 0.00 | 0.00 | 68 | 1004.8 |
| 20260504045530 | 36 | 304 | 0.0 | 2.0 | 0.00 | 0.00 | 0.00 | 68 | 1004.9 |
| 20260504045026 | 36 | 304 | 0.0 | 0.0 | 0.00 | 0.00 | 0.00 | 68 | 1004.9 |
| 20260504044549 | 35 | 304 | 0.0 | 0.0 | 0.00 | 0.00 | 0.00 | 69 | 1005.4 |
| 20260504044530 | 36 | 304 | 0.0 | 0.0 | 0.00 | 0.00 | 0.00 | 69 | 1005.0 |
| 20260504044015 | 36 | 304 | 0.0 | 0.0 | 0.00 | 0.00 | 0.00 | 70 | 1005.0 |
| 20260504043528 | 35 | 304 | 0.0 | 1.0 | 0.00 | 0.00 | 0.00 | 70 | 1005.1 |
| 20260504043056 | 35 | 304 | 0.0 | 1.0 | 0.00 | 0.00 | 0.00 | 71 | 1005.4 |
| 20260504043030 | 35 | 304 | 0.0 | 1.0 | 0.00 | 0.00 | 0.00 | 71 | 1005.1 |
| 20260504042513 | 35 | 304 | 0.0 | 0.0 | 0.00 | 0.00 | 0.00 | 71 | 1005.2 |
| 20260504042024 | 35 | 304 | 0.0 | 1.0 | 0.00 | 0.00 | 0.00 | 71 | 1005.2 |
| 20260504041544 | 34 | 304 | 0.0 | 1.0 | 0.00 | 0.00 | 0.00 | 72 | 1005.5 |
| 20260504041527 | 35 | 304 | 0.0 | 1.0 | 0.00 | 0.00 | 0.00 | 72 | 1005.1 |
| 20260504041031 | 35 | 304 | 0.0 | 1.0 | 0.00 | 0.00 | 0.00 | 73 | 1005.3 |
| 20260504040515 | 34 | 304 | 0.0 | 0.0 | 0.00 | 0.00 | 0.00 | 74 | 1005.2 |
| 20260504040037 | 33 | 304 | 0.0 | 0.0 | 0.00 | 0.00 | 0.00 | 75 | 1005.6 |
| 20260504040019 | 34 | 304 | 0.0 | 0.0 | 0.00 | 0.00 | 0.00 | 75 | 1005.2 |
| 20260504035532 | 34 | 304 | 0.0 | 0.0 | 0.00 | 0.00 | 0.00 | 75 | 1005.2 |
| 20260504035017 | 34 | 304 | 0.0 | 0.0 | 0.00 | 0.00 | 0.00 | 74 | 1005.3 |
| 20260504034541 | 34 | 304 | 0.0 | 0.0 | 0.00 | 0.00 | 0.00 | 73 | 1005.6 |
| 20260504034523 | 34 | 304 | 0.0 | 0.0 | 0.00 | 0.00 | 0.00 | 73 | 1005.3 |
| 20260504034032 | 34 | 304 | 0.0 | 0.0 | 0.00 | 0.00 | 0.00 | 73 | 1005.3 |
| 20260504033518 | 35 | 304 | 0.0 | 0.0 | 0.00 | 0.00 | 0.00 | 72 | 1005.3 |
| 20260504033040 | 34 | 304 | 0.0 | 0.0 | 0.00 | 0.00 | 0.00 | 72 | 1005.6 |
| 20260504033021 | 35 | 304 | 0.0 | 0.0 | 0.00 | 0.00 | 0.00 | 72 | 1005.2 |
| 20260504032534 | 35 | 304 | 0.0 | 0.0 | 0.00 | 0.00 | 0.00 | 71 | 1005.2 |
| 20260504032021 | 35 | 304 | 0.0 | 1.0 | 0.00 | 0.00 | 0.00 | 71 | 1005.2 |
| 20260504031555 | 35 | 304 | 0.0 | 1.0 | 0.00 | 0.00 | 0.00 | 70 | 1005.5 |
| 20260504031526 | 35 | 304 | 0.0 | 1.0 | 0.00 | 0.00 | 0.00 | 70 | 1005.2 |
| 20260504031037 | 36 | 304 | 0.0 | 0.0 | 0.00 | 0.00 | 0.00 | 70 | 1005.1 |
| 20260504030523 | 36 | 304 | 0.0 | 0.0 | 0.00 | 0.00 | 0.00 | 69 | 1005.1 |
| 20260504030049 | 35 | 304 | 0.0 | 0.0 | 0.00 | 0.00 | 0.00 | 68 | 1005.5 |
| 20260504030028 | 36 | 304 | 0.0 | 0.0 | 0.00 | 0.00 | 0.00 | 68 | 1005.1 |
| 20260504025512 | 36 | 304 | 0.0 | 1.0 | 0.00 | 0.00 | 0.00 | 68 | 1005.1 |
| 20260504025024 | 36 | 304 | 0.0 | 1.0 | 0.00 | 0.00 | 0.00 | 67 | 1005.1 |
| 20260504024548 | 36 | 304 | 0.0 | 0.0 | 0.00 | 0.00 | 0.00 | 67 | 1005.5 |
| 20260504024528 | 36 | 304 | 0.0 | 0.0 | 0.00 | 0.00 | 0.00 | 67 | 1005.1 |
| 20260504024012 | 36 | 304 | 0.0 | 0.0 | 0.00 | 0.00 | 0.00 | 67 | 1005.1 |
| 20260504023525 | 36 | 304 | 0.0 | 0.0 | 0.00 | 0.00 | 0.00 | 67 | 1005.1 |
| 20260504023050 | 36 | 304 | 0.0 | 0.0 | 0.00 | 0.00 | 0.00 | 66 | 1005.5 |
| 20260504023031 | 37 | 304 | 0.0 | 0.0 | 0.00 | 0.00 | 0.00 | 66 | 1005.2 |
| 20260504022516 | 37 | 304 | 0.0 | 0.0 | 0.00 | 0.00 | 0.00 | 66 | 1005.2 |
| 20260504022011 | 37 | 304 | 0.0 | 0.0 | 0.00 | 0.00 | 0.00 | 65 | 1005.2 |
| 20260504021554 | 36 | 304 | 0.0 | 0.0 | 0.00 | 0.00 | 0.00 | 66 | 1005.6 |
| 20260504021518 | 37 | 304 | 0.0 | 0.0 | 0.00 | 0.00 | 0.00 | 67 | 1005.2 |
| 20260504021025 | 37 | 304 | 0.0 | 0.0 | 0.00 | 0.00 | 0.00 | 68 | 1005.2 |
| 20260504020516 | 37 | 304 | 0.0 | 0.0 | 0.00 | 0.00 | 0.00 | 67 | 1005.2 |
| 20260504020037 | 37 | 304 | 0.0 | 0.0 | 0.00 | 0.00 | 0.00 | 66 | 1005.5 |
| 20260504020020 | 37 | 304 | 0.0 | 0.0 | 0.00 | 0.00 | 0.00 | 66 | 1005.2 |
| 20260504015530 | 38 | 304 | 0.0 | 0.0 | 0.00 | 0.00 | 0.00 | 65 | 1005.2 |
| 20260504015016 | 38 | 304 | 0.0 | 0.0 | 0.00 | 0.00 | 0.00 | 64 | 1005.2 |
| 20260504014553 | 38 | 304 | 0.0 | 0.0 | 0.00 | 0.00 | 0.00 | 62 | 1005.5 |
| 20260504014522 | 38 | 304 | 0.0 | 0.0 | 0.00 | 0.00 | 0.00 | 62 | 1005.1 |
| 20260504014014 | 39 | 304 | 0.0 | 0.0 | 0.00 | 0.00 | 0.00 | 61 | 1005.1 |
| 20260504013525 | 39 | 304 | 0.0 | 0.0 | 0.00 | 0.00 | 0.00 | 60 | 1005.1 |
| 20260504013048 | 39 | 304 | 0.0 | 0.0 | 0.00 | 0.00 | 0.00 | 59 | 1005.4 |
| 20260504013011 | 40 | 304 | 0.0 | 0.0 | 0.00 | 0.00 | 0.00 | 58 | 1005.0 |
| 20260504012518 | 41 | 304 | 0.0 | 0.0 | 0.00 | 0.00 | 0.00 | 58 | 1005.1 |
| 20260504012030 | 41 | 304 | 0.0 | 0.0 | 0.00 | 0.00 | 0.00 | 55 | 1005.1 |
| 20260504011554 | 41 | 304 | 0.0 | 0.0 | 0.00 | 0.00 | 0.00 | 55 | 1005.4 |
| 20260504011516 | 41 | 304 | 0.0 | 0.0 | 0.00 | 0.00 | 0.00 | 55 | 1005.0 |
| 20260504011022 | 42 | 304 | 0.0 | 0.0 | 0.00 | 0.00 | 0.00 | 55 | 1005.0 |
| 20260504010515 | 42 | 304 | 0.0 | 1.0 | 0.00 | 0.00 | 0.00 | 53 | 1005.0 |
| 20260504010114 | 42 | 304 | 0.0 | 2.0 | 0.00 | 0.00 | 0.00 | 52 | 1005.3 |
| 20260504010019 | 42 | 304 | 0.0 | 2.0 | 0.00 | 0.00 | 0.00 | 52 | 1004.9 |
| 20260504005523 | 42 | 304 | 1.0 | 2.0 | 0.00 | 0.00 | 0.00 | 52 | 1004.9 |
| 20260504005016 | 43 | 312 | 1.0 | 3.0 | 0.00 | 0.00 | 0.00 | 51 | 1004.9 |
| 20260504004601 | 42 | 310 | 0.0 | 3.0 | 0.00 | 0.00 | 0.00 | 51 | 1005.2 |
| 20260504004521 | 43 | 316 | 1.0 | 3.0 | 0.00 | 0.00 | 0.00 | 51 | 1004.9 |
| 20260504004024 | 43 | 298 | 1.0 | 4.0 | 0.00 | 0.00 | 0.00 | 50 | 1004.9 |
| 20260504003517 | 43 | 355 | 2.0 | 6.0 | 0.00 | 0.00 | 0.00 | 50 | 1004.8 |
| 20260504003102 | 43 | 298 | 2.0 | 6.0 | 0.00 | 0.00 | 0.00 | 49 | 1005.1 |
| 20260504003023 | 44 | 336 | 2.0 | 6.0 | 0.00 | 0.00 | 0.00 | 50 | 1004.8 |
| 20260504002529 | 44 | 302 | 1.0 | 5.0 | 0.00 | 0.00 | 0.00 | 49 | 1004.7 |
| 20260504002020 | 44 | 323 | 2.0 | 6.0 | 0.00 | 0.00 | 0.00 | 48 | 1004.8 |
| 20260504001604 | 44 | 310 | 1.0 | 6.0 | 0.00 | 0.00 | 0.00 | 48 | 1005.0 |
| 20260504001525 | 44 | 310 | 2.0 | 6.0 | 0.00 | 0.00 | 0.00 | 48 | 1004.8 |
| 20260504001030 | 44 | 322 | 3.0 | 7.0 | 0.00 | 0.00 | 0.00 | 47 | 1004.8 |
| 20260504000522 | 45 | 344 | 3.0 | 7.0 | 0.00 | 0.00 | 0.00 | 47 | 1004.7 |
| 20260504000105 | 44 | 346 | 2.0 | 7.0 | 0.00 | 0.00 | 0.00 | 46 | 1005.0 |
| 20260504000025 | 45 | 331 | 3.0 | 7.0 | 0.00 | 0.00 | 0.00 | 46 | 1004.7 |
| 20260503235530 | 45 | 336 | 2.0 | 7.0 | 0.00 | 0.00 | 0.00 | 46 | 1004.6 |
| 20260503235022 | 45 | 327 | 2.0 | 7.0 | 0.00 | 0.00 | 0.00 | 46 | 1004.6 |
| 20260503234606 | 45 | 353 | 4.0 | 10.0 | 0.00 | 0.00 | 0.00 | 45 | 1005.0 |
| 20260503234528 | 46 | 324 | 4.0 | 10.0 | 0.00 | 0.00 | 0.00 | 45 | 1004.6 |
| 20260503234012 | 46 | 355 | 4.0 | 10.0 | 0.00 | 0.00 | 0.00 | 45 | 1004.7 |
| 20260503233526 | 47 | 314 | 5.0 | 9.0 | 0.00 | 0.00 | 0.00 | 44 | 1004.7 |
| 20260503233107 | 46 | 333 | 3.0 | 9.0 | 0.00 | 0.00 | 0.00 | 44 | 1005.0 |
| 20260503233027 | 47 | 98 | 3.0 | 9.0 | 0.00 | 0.00 | 0.00 | 44 | 1004.6 |
| 20260503232513 | 47 | 19 | 5.0 | 8.0 | 0.00 | 0.00 | 0.00 | 43 | 1004.7 |
| 20260503232022 | 47 | 337 | 4.0 | 11.0 | 0.00 | 0.00 | 0.00 | 43 | 1004.6 |
| 20260503231607 | 47 | 292 | 4.0 | 11.0 | 0.00 | 0.00 | 0.00 | 42 | 1004.8 |
| 20260503231511 | 48 | 33 | 6.0 | 11.0 | 0.00 | 0.00 | 0.00 | 42 | 1004.6 |
| 20260503231015 | 48 | 357 | 5.0 | 9.0 | 0.00 | 0.00 | 0.00 | 42 | 1004.5 |
| 20260503230526 | 48 | 325 | 4.0 | 10.0 | 0.00 | 0.00 | 0.00 | 42 | 1004.6 |
| 20260503230027 | 48 | 341 | 6.0 | 10.0 | 0.00 | 0.08 | 0.00 | 41 | 1004.6 |
| 20260503225513 | 48 | 20 | 4.0 | 12.0 | 0.00 | 0.08 | 0.00 | 41 | 1004.6 |
| 20260503225026 | 49 | 343 | 7.0 | 12.0 | 0.00 | 0.08 | 0.00 | 41 | 1004.6 |
| 20260503224609 | 48 | 336 | 4.0 | 9.0 | 0.00 | 0.02 | 0.00 | 41 | 1004.8 |
| 20260503224512 | 49 | 6 | 4.0 | 9.0 | 0.00 | 0.08 | 0.00 | 41 | 1004.5 |
| 20260503224018 | 49 | 318 | 4.0 | 9.0 | 0.00 | 0.08 | 0.00 | 41 | 1004.5 |
| 20260503223531 | 49 | 310 | 5.0 | 13.0 | 0.00 | 0.08 | 0.00 | 41 | 1004.4 |
| 20260503223110 | 48 | 329 | 7.0 | 13.0 | 0.00 | 0.02 | 0.00 | 41 | 1004.8 |
| 20260503223030 | 49 | 349 | 8.0 | 12.0 | 0.00 | 0.08 | 0.00 | 40 | 1004.5 |
| 20260503222517 | 49 | 322 | 4.0 | 11.0 | 0.00 | 0.08 | 0.00 | 41 | 1004.4 |
| 20260503222029 | 49 | 336 | 6.0 | 13.0 | 0.00 | 0.08 | 0.00 | 41 | 1004.5 |
| 20260503221611 | 48 | 333 | 5.0 | 13.0 | 0.00 | 0.02 | 0.00 | 41 | 1004.7 |
| 20260503221514 | 49 | 351 | 6.0 | 13.0 | 0.00 | 0.08 | 0.00 | 40 | 1004.4 |
| 20260503221021 | 49 | 291 | 6.0 | 14.0 | 0.00 | 0.08 | 0.00 | 40 | 1004.4 |
| 20260503220533 | 50 | 360 | 7.0 | 14.0 | 0.00 | 0.08 | 0.00 | 39 | 1004.4 |
| 20260503220114 | 49 | 299 | 3.0 | 10.0 | 0.00 | 0.02 | 0.00 | 41 | 1004.7 |
| 20260503220016 | 50 | 340 | 4.0 | 10.0 | 0.00 | 0.20 | 0.00 | 40 | 1004.4 |
| 20260503215523 | 50 | 42 | 6.0 | 11.0 | 0.00 | 0.20 | 0.00 | 40 | 1004.4 |
| 20260503215035 | 50 | 327 | 3.0 | 14.0 | 0.00 | 0.20 | 0.00 | 41 | 1004.4 |
| 20260503214521 | 50 | 334 | 7.0 | 13.0 | 0.00 | 0.20 | 0.00 | 40 | 1004.4 |
| 20260503214026 | 50 | 307 | 6.0 | 13.0 | 0.00 | 0.20 | 0.00 | 40 | 1004.4 |
| 20260503213512 | 50 | 315 | 7.0 | 13.0 | 0.00 | 0.20 | 0.00 | 39 | 1004.4 |
| 20260503213018 | 50 | 324 | 4.0 | 10.0 | 0.00 | 0.20 | 0.00 | 40 | 1004.4 |
| 20260503213006 | 49 | 296 | 4.0 | 10.0 | 0.00 | 0.04 | 0.00 | 40 | 1004.7 |
| 20260503212524 | 50 | 307 | 6.0 | 12.0 | 0.00 | 0.20 | 0.00 | 39 | 1004.5 |
| 20260503212030 | 50 | 14 | 5.0 | 14.0 | 0.00 | 0.20 | 0.00 | 40 | 1004.5 |
| 20260503211522 | 50 | 344 | 6.0 | 14.0 | 0.00 | 0.20 | 0.00 | 39 | 1004.5 |
| 20260503211511 | 49 | 340 | 6.0 | 14.0 | 0.00 | 0.04 | 0.00 | 39 | 1004.8 |
| 20260503211026 | 50 | 312 | 5.0 | 16.0 | 0.00 | 0.20 | 0.00 | 40 | 1004.6 |
| 20260503210513 | 50 | 338 | 8.0 | 16.0 | 0.00 | 0.20 | 0.00 | 40 | 1004.5 |
| 20260503210035 | 49 | 355 | 5.0 | 17.0 | 0.00 | 0.08 | 0.00 | 40 | 1004.8 |
| 20260503210025 | 50 | 318 | 5.0 | 17.0 | 0.00 | 0.39 | 0.00 | 40 | 1004.5 |
| 20260503205529 | 50 | 359 | 8.0 | 17.0 | 0.00 | 0.39 | 0.00 | 40 | 1004.5 |
| 20260503205014 | 51 | 283 | 9.0 | 15.0 | 0.00 | 0.39 | 0.00 | 39 | 1004.5 |
| 20260503204526 | 50 | 350 | 7.0 | 14.0 | 0.00 | 0.39 | 0.00 | 39 | 1004.4 |
| 20260503204513 | 50 | 327 | 6.0 | 14.0 | 0.00 | 0.08 | 0.00 | 39 | 1004.7 |
| 20260503204030 | 51 | 345 | 7.0 | 14.0 | 0.00 | 0.39 | 0.00 | 40 | 1004.4 |
| 20260503203514 | 50 | 2 | 8.0 | 14.0 | 0.00 | 0.39 | 0.00 | 39 | 1004.5 |
| 20260503203025 | 50 | 347 | 7.0 | 19.0 | 0.00 | 0.39 | 0.00 | 39 | 1004.4 |
| 20260503203015 | 50 | 351 | 6.0 | 19.0 | 0.00 | 0.08 | 0.00 | 39 | 1004.7 |
| 20260503202531 | 50 | 342 | 7.0 | 19.0 | 0.00 | 0.39 | 0.00 | 38 | 1004.4 |
| 20260503202015 | 51 | 308 | 7.0 | 13.0 | 0.00 | 0.39 | 0.00 | 39 | 1004.4 |
| 20260503201526 | 50 | 323 | 5.0 | 12.0 | 0.00 | 0.39 | 0.00 | 40 | 1004.4 |
| 20260503201518 | 50 | 319 | 5.0 | 12.0 | 0.00 | 0.08 | 0.00 | 40 | 1004.7 |
| 20260503201017 | 50 | 12 | 7.0 | 12.0 | 0.00 | 0.39 | 0.00 | 40 | 1004.4 |
| 20260503200523 | 50 | 4 | 6.0 | 12.0 | 0.00 | 0.39 | 0.00 | 39 | 1004.4 |
| 20260503200034 | 50 | 321 | 6.0 | 14.0 | 0.00 | 0.39 | 0.00 | 40 | 1004.4 |
| 20260503200020 | 49 | 347 | 5.0 | 14.0 | 0.00 | 0.08 | 0.00 | 40 | 1004.7 |
| 20260503195519 | 50 | 348 | 8.0 | 14.0 | 0.00 | 0.39 | 0.00 | 40 | 1004.4 |
| 20260503195024 | 50 | 300 | 5.0 | 14.0 | 0.00 | 0.39 | 0.00 | 39 | 1004.4 |
| 20260503194536 | 49 | 353 | 6.0 | 15.0 | 0.00 | 0.39 | 0.00 | 40 | 1004.3 |
| 20260503194522 | 49 | 327 | 6.0 | 15.0 | 0.00 | 0.08 | 0.00 | 40 | 1004.6 |
| 20260503194022 | 50 | 317 | 8.0 | 15.0 | 0.00 | 0.39 | 0.00 | 40 | 1004.2 |
| 20260503193527 | 50 | 318 | 5.0 | 11.0 | 0.00 | 0.39 | 0.00 | 42 | 1004.3 |
| 20260503193036 | 49 | 334 | 7.0 | 17.0 | 0.00 | 0.39 | 0.00 | 41 | 1004.3 |
| 20260503193023 | 49 | 353 | 7.0 | 17.0 | 0.00 | 0.08 | 0.00 | 41 | 1004.6 |
| 20260503192522 | 49 | 337 | 7.0 | 17.0 | 0.00 | 0.39 | 0.00 | 41 | 1004.3 |
| 20260503192026 | 49 | 286 | 6.0 | 16.0 | 0.00 | 0.39 | 0.00 | 41 | 1004.4 |
| 20260503191537 | 49 | 299 | 5.0 | 16.0 | 0.00 | 0.08 | 0.00 | 41 | 1004.6 |
| 20260503191511 | 49 | 350 | 4.0 | 16.0 | 0.00 | 0.39 | 0.00 | 41 | 1004.3 |
| 20260503191023 | 49 | 14 | 4.0 | 11.0 | 0.00 | 0.39 | 0.00 | 39 | 1004.5 |
| 20260503190529 | 50 | 343 | 5.0 | 11.0 | 0.00 | 0.39 | 0.00 | 39 | 1004.5 |
| 20260503190045 | 49 | 315 | 6.0 | 13.0 | 0.00 | 0.08 | 0.00 | 40 | 1004.8 |
| 20260503190013 | 50 | 314 | 7.0 | 13.0 | 0.00 | 0.39 | 0.00 | 40 | 1004.5 |
| 20260503185524 | 50 | 302 | 6.0 | 14.0 | 0.00 | 0.39 | 0.00 | 40 | 1004.4 |
| 20260503185027 | 49 | 323 | 7.0 | 15.0 | 0.00 | 0.39 | 0.00 | 40 | 1004.4 |
| 20260503184537 | 49 | 1 | 9.0 | 15.0 | 0.00 | 0.08 | 0.00 | 40 | 1004.7 |
| 20260503184512 | 50 | 303 | 9.0 | 15.0 | 0.00 | 0.39 | 0.00 | 40 | 1004.4 |
| 20260503184023 | 50 | 319 | 7.0 | 15.0 | 0.00 | 0.39 | 0.00 | 40 | 1004.4 |
| 20260503183529 | 50 | 301 | 7.0 | 15.0 | 0.00 | 0.39 | 0.00 | 40 | 1004.6 |
| 20260503183040 | 50 | 320 | 7.0 | 15.0 | 0.00 | 0.08 | 0.00 | 39 | 1004.9 |
| 20260503183012 | 50 | 313 | 6.0 | 15.0 | 0.00 | 0.39 | 0.00 | 39 | 1004.6 |
| 20260503182524 | 50 | 333 | 9.0 | 15.0 | 0.00 | 0.39 | 0.00 | 39 | 1004.5 |
| 20260503182026 | 51 | 350 | 6.0 | 17.0 | 0.00 | 0.39 | 0.00 | 40 | 1004.6 |
| 20260503181538 | 50 | 324 | 5.0 | 17.0 | 0.00 | 0.08 | 0.00 | 40 | 1004.8 |
| 20260503181512 | 50 | 307 | 4.0 | 17.0 | 0.00 | 0.39 | 0.00 | 40 | 1004.5 |
| 20260503181022 | 50 | 308 | 6.0 | 11.0 | 0.00 | 0.39 | 0.00 | 39 | 1004.6 |
| 20260503180528 | 50 | 336 | 5.0 | 14.0 | 0.00 | 0.39 | 0.00 | 41 | 1004.7 |
| 20260503180037 | 50 | 327 | 6.0 | 14.0 | 0.00 | 0.39 | 0.00 | 39 | 1004.8 |
| 20260503180025 | 49 | 320 | 5.0 | 14.0 | 0.00 | 0.08 | 0.00 | 39 | 1005.2 |
| 20260503175523 | 50 | 316 | 6.0 | 14.0 | 0.00 | 0.39 | 0.00 | 41 | 1004.7 |
| 20260503175028 | 50 | 327 | 6.0 | 13.0 | 0.00 | 0.39 | 0.00 | 39 | 1004.7 |
| 20260503174540 | 50 | 1 | 5.0 | 12.0 | 0.00 | 0.08 | 0.00 | 40 | 1005.0 |
| 20260503174513 | 50 | 305 | 6.0 | 16.0 | 0.00 | 0.39 | 0.00 | 39 | 1004.7 |
| 20260503174025 | 50 | 319 | 6.0 | 16.0 | 0.00 | 0.39 | 0.00 | 40 | 1004.7 |
| 20260503173512 | 50 | 329 | 7.0 | 13.0 | 0.00 | 0.39 | 0.00 | 40 | 1004.8 |
| 20260503173124 | 49 | 347 | 5.0 | 13.0 | 0.00 | 0.08 | 0.00 | 39 | 1005.1 |
| 20260503173015 | 50 | 31 | 6.0 | 13.0 | 0.00 | 0.39 | 0.00 | 39 | 1004.8 |
| 20260503172526 | 50 | 325 | 6.0 | 13.0 | 0.00 | 0.39 | 0.00 | 40 | 1004.8 |
| 20260503172031 | 50 | 355 | 7.0 | 14.0 | 0.00 | 0.39 | 0.00 | 39 | 1005.0 |
| 20260503171548 | 49 | 316 | 6.0 | 15.0 | 0.00 | 0.08 | 0.00 | 40 | 1005.3 |
| 20260503171516 | 50 | 306 | 8.0 | 15.0 | 0.00 | 0.39 | 0.00 | 40 | 1004.9 |
| 20260503171028 | 50 | 307 | 8.0 | 15.0 | 0.00 | 0.39 | 0.00 | 40 | 1005.0 |
| 20260503170518 | 50 | 343 | 5.0 | 12.0 | 0.00 | 0.39 | 0.00 | 39 | 1005.0 |